Time,TemperatureF,DewpointF,PressureIn,WindDirection,WindDirectionDegrees,WindSpeedMPH,WindSpeedGustMPH,Humidity,HourlyPrecipIn,Conditions,Clouds,dailyrainin,SoftwareType,DateUTC
2013-03-23 00:02:00,34.0,29.0,-100.00,West,266,7.0,10.0,84,0.00,,,-99.99,,2013-03-23 08:02:00,
2013-03-23 00:12:00,34.0,29.0,-100.00,West,266,7.0,10.0,84,0.00,,,-99.99,,2013-03-23 08:12:00,
2013-03-23 00:22:00,34.0,29.0,-100.00,West,266,7.0,10.0,84,0.00,,,-99.99,,2013-03-23 08:22:00,
2013-03-23 00:30:00,33.0,26.0,-100.00,West,277,6.0,9.0,74,0.00,,,-99.99,,2013-03-23 08:30:00,
2013-03-23 00:52:00,33.0,26.0,-100.00,West,277,6.0,9.0,74,0.00,,,-99.99,,2013-03-23 08:52:00,
2013-03-23 01:02:00,33.0,26.0,-100.00,West,277,6.0,9.0,74,0.00,,,-99.99,,2013-03-23 09:02:00,
2013-03-23 01:12:00,33.0,26.0,-100.00,West,277,6.0,9.0,74,0.00,,,-99.99,,2013-03-23 09:12:00,
2013-03-23 01:22:00,33.0,26.0,-100.00,West,277,6.0,9.0,74,0.00,,,-99.99,,2013-03-23 09:22:00,
2013-03-23 01:30:00,33.0,26.0,-100.00,West,273,5.0,8.0,76,0.00,,,-99.99,,2013-03-23 09:30:00,
2013-03-23 01:53:00,33.0,26.0,-100.00,West,273,5.0,8.0,76,0.00,,,-99.99,,2013-03-23 09:53:00,
2013-03-23 02:03:00,33.0,26.0,-100.00,West,273,5.0,8.0,76,0.00,,,-99.99,,2013-03-23 10:03:00,
2013-03-23 02:12:00,33.0,26.0,-100.00,West,273,5.0,8.0,76,0.00,,,-99.99,,2013-03-23 10:12:00,
2013-03-23 02:23:00,33.0,26.0,-100.00,West,273,5.0,8.0,76,0.00,,,-99.99,,2013-03-23 10:23:00,
2013-03-23 02:30:00,33.0,27.0,-100.00,West,279,7.0,11.0,77,0.00,,,-99.99,,2013-03-23 10:30:00,
2013-03-23 02:52:00,33.0,27.0,-100.00,West,279,7.0,11.0,77,0.00,,,-99.99,,2013-03-23 10:52:00,
2013-03-23 03:03:00,33.0,27.0,-100.00,West,279,7.0,11.0,77,0.00,,,-99.99,,2013-03-23 11:03:00,
2013-03-23 03:12:00,33.0,27.0,-100.00,West,279,7.0,11.0,77,0.00,,,-99.99,,2013-03-23 11:12:00,
2013-03-23 03:22:00,33.0,27.0,-100.00,West,279,7.0,11.0,77,0.00,,,-99.99,,2013-03-23 11:22:00,
2013-03-23 03:30:00,33.0,25.0,-100.00,WNW,288,7.0,9.0,71,0.00,,,-99.99,,2013-03-23 11:30:00,
2013-03-23 03:52:00,33.0,25.0,-100.00,WNW,288,7.0,9.0,71,0.00,,,-99.99,,2013-03-23 11:52:00,
2013-03-23 04:02:00,33.0,25.0,-100.00,WNW,288,7.0,9.0,71,0.00,,,-99.99,,2013-03-23 12:02:00,
2013-03-23 04:12:00,33.0,25.0,-100.00,WNW,288,7.0,9.0,71,0.00,,,-99.99,,2013-03-23 12:12:00,
2013-03-23 04:22:00,33.0,25.0,-100.00,WNW,288,7.0,9.0,71,0.00,,,-99.99,,2013-03-23 12:22:00,
2013-03-23 04:30:00,33.0,25.0,-100.00,West,277,4.0,8.0,71,0.00,,,-99.99,,2013-03-23 12:30:00,
2013-03-23 04:53:00,33.0,25.0,-100.00,West,277,4.0,8.0,71,0.00,,,-99.99,,2013-03-23 12:53:00,
2013-03-23 05:02:00,33.0,25.0,-100.00,West,277,4.0,8.0,71,0.00,,,-99.99,,2013-03-23 13:02:00,
2013-03-23 05:12:00,33.0,25.0,-100.00,West,277,4.0,8.0,71,0.00,,,-99.99,,2013-03-23 13:12:00,
2013-03-23 05:22:00,33.0,25.0,-100.00,West,277,4.0,8.0,71,0.00,,,-99.99,,2013-03-23 13:22:00,
2013-03-23 05:30:00,33.0,25.0,-100.00,West,278,4.0,6.0,71,0.00,,,-99.99,,2013-03-23 13:30:00,
2013-03-23 05:53:00,33.0,25.0,-100.00,West,278,4.0,6.0,71,0.00,,,-99.99,,2013-03-23 13:53:00,
2013-03-23 06:03:00,33.0,25.0,-100.00,West,278,4.0,6.0,71,0.00,,,-99.99,,2013-03-23 14:03:00,
2013-03-23 06:12:00,33.0,25.0,-100.00,West,278,4.0,6.0,71,0.00,,,-99.99,,2013-03-23 14:12:00,
2013-03-23 06:22:00,33.0,25.0,-100.00,West,278,4.0,6.0,71,0.00,,,-99.99,,2013-03-23 14:22:00,
2013-03-23 06:30:00,33.0,25.0,-100.00,West,266,4.0,7.0,72,0.00,,,-99.99,,2013-03-23 14:30:00,
2013-03-23 06:53:00,33.0,25.0,-100.00,West,266,4.0,7.0,72,0.00,,,-99.99,,2013-03-23 14:53:00,
2013-03-23 07:02:00,33.0,25.0,-100.00,West,266,4.0,7.0,72,0.00,,,-99.99,,2013-03-23 15:02:00,
2013-03-23 07:12:00,33.0,25.0,-100.00,West,266,4.0,7.0,72,0.00,,,-99.99,,2013-03-23 15:12:00,
2013-03-23 07:22:00,33.0,25.0,-100.00,West,266,4.0,7.0,72,0.00,,,-99.99,,2013-03-23 15:22:00,
2013-03-23 07:30:00,33.0,26.0,-100.00,West,278,10.0,14.0,74,0.00,,,-99.99,,2013-03-23 15:30:00,
2013-03-23 07:53:00,33.0,26.0,-100.00,West,278,10.0,14.0,74,0.00,,,-99.99,,2013-03-23 15:53:00,
2013-03-23 08:03:00,33.0,26.0,-100.00,West,278,10.0,14.0,74,0.00,,,-99.99,,2013-03-23 16:03:00,
2013-03-23 08:12:00,33.0,26.0,-100.00,West,278,10.0,14.0,74,0.00,,,-99.99,,2013-03-23 16:12:00,
2013-03-23 08:22:00,33.0,26.0,-100.00,West,278,10.0,14.0,74,0.00,,,-99.99,,2013-03-23 16:22:00,
2013-03-23 08:30:00,32.0,25.0,-100.00,West,262,12.0,17.0,72,0.00,,,-99.99,,2013-03-23 16:30:00,
2013-03-23 08:53:00,32.0,25.0,-100.00,West,262,12.0,17.0,72,0.00,,,-99.99,,2013-03-23 16:53:00,
2013-03-23 09:02:00,32.0,25.0,-100.00,West,262,12.0,17.0,72,0.00,,,-99.99,,2013-03-23 17:02:00,
2013-03-23 09:11:00,32.0,25.0,-100.00,West,262,12.0,17.0,72,0.00,,,-99.99,,2013-03-23 17:11:00,
2013-03-23 09:22:00,32.0,25.0,-100.00,West,262,12.0,17.0,72,0.00,,,-99.99,,2013-03-23 17:22:00,
2013-03-23 09:30:00,32.0,25.0,-100.00,West,264,12.0,17.0,74,0.00,,,-99.99,,2013-03-23 17:30:00,
2013-03-23 09:53:00,32.0,25.0,-100.00,West,264,12.0,17.0,74,0.00,,,-99.99,,2013-03-23 17:53:00,
2013-03-23 10:02:00,32.0,25.0,-100.00,West,264,12.0,17.0,74,0.00,,,-99.99,,2013-03-23 18:02:00,
2013-03-23 10:12:00,32.0,25.0,-100.00,West,264,12.0,17.0,74,0.00,,,-99.99,,2013-03-23 18:12:00,
2013-03-23 10:22:00,32.0,25.0,-100.00,West,264,12.0,17.0,74,0.00,,,-99.99,,2013-03-23 18:22:00,
2013-03-23 10:30:00,32.0,24.0,-100.00,West,260,9.0,13.0,74,0.00,,,-99.99,,2013-03-23 18:30:00,
2013-03-23 10:53:00,32.0,24.0,-100.00,West,260,9.0,13.0,74,0.00,,,-99.99,,2013-03-23 18:53:00,
2013-03-23 11:02:00,32.0,24.0,-100.00,West,260,9.0,13.0,74,0.00,,,-99.99,,2013-03-23 19:02:00,
2013-03-23 11:12:00,32.0,24.0,-100.00,West,260,9.0,13.0,74,0.00,,,-99.99,,2013-03-23 19:12:00,
2013-03-23 11:22:00,32.0,24.0,-100.00,West,260,9.0,13.0,74,0.00,,,-99.99,,2013-03-23 19:22:00,
2013-03-23 11:30:00,32.0,24.0,-100.00,WSW,258,11.0,15.0,74,0.00,,,-99.99,,2013-03-23 19:30:00,
2013-03-23 11:53:00,32.0,24.0,-100.00,WSW,258,11.0,15.0,74,0.00,,,-99.99,,2013-03-23 19:53:00,
2013-03-23 12:02:00,32.0,24.0,-100.00,WSW,258,11.0,15.0,74,0.00,,,-99.99,,2013-03-23 20:02:00,
2013-03-23 12:12:00,32.0,24.0,-100.00,WSW,258,11.0,15.0,74,0.00,,,-99.99,,2013-03-23 20:12:00,
2013-03-23 12:22:00,32.0,24.0,-100.00,WSW,258,11.0,15.0,74,0.00,,,-99.99,,2013-03-23 20:22:00,
2013-03-23 12:30:00,33.0,25.0,-100.00,WSW,252,12.0,15.0,72,0.00,,,-99.99,,2013-03-23 20:30:00,
2013-03-23 12:53:00,33.0,25.0,-100.00,WSW,252,12.0,15.0,72,0.00,,,-99.99,,2013-03-23 20:53:00,
2013-03-23 13:02:00,33.0,25.0,-100.00,WSW,252,12.0,15.0,72,0.00,,,-99.99,,2013-03-23 21:02:00,
2013-03-23 13:12:00,33.0,25.0,-100.00,WSW,252,12.0,15.0,72,0.00,,,-99.99,,2013-03-23 21:12:00,
2013-03-23 13:22:00,33.0,25.0,-100.00,WSW,252,12.0,15.0,72,0.00,,,-99.99,,2013-03-23 21:22:00,
2013-03-23 13:30:00,34.0,24.0,-100.00,WSW,255,10.0,13.0,68,0.00,,,-99.99,,2013-03-23 21:30:00,
2013-03-23 13:54:00,34.0,24.0,-100.00,WSW,255,10.0,13.0,68,0.00,,,-99.99,,2013-03-23 21:54:00,
2013-03-23 14:02:00,34.0,24.0,-100.00,WSW,255,10.0,13.0,68,0.00,,,-99.99,,2013-03-23 22:02:00,
2013-03-23 14:12:00,34.0,24.0,-100.00,WSW,255,10.0,13.0,68,0.00,,,-99.99,,2013-03-23 22:12:00,
2013-03-23 14:23:00,34.0,24.0,-100.00,WSW,255,10.0,13.0,68,0.00,,,-99.99,,2013-03-23 22:23:00,
2013-03-23 14:30:00,32.0,24.0,-100.00,WNW,284,9.0,13.0,71,0.00,,,-99.99,,2013-03-23 22:30:00,
2013-03-23 14:53:00,32.0,24.0,-100.00,WNW,284,9.0,13.0,71,0.00,,,-99.99,,2013-03-23 22:53:00,
2013-03-23 15:02:00,32.0,24.0,-100.00,WNW,284,9.0,13.0,71,0.00,,,-99.99,,2013-03-23 23:02:00,
2013-03-23 15:12:00,32.0,24.0,-100.00,WNW,284,9.0,13.0,71,0.00,,,-99.99,,2013-03-23 23:12:00,
2013-03-23 15:22:00,32.0,24.0,-100.00,WNW,284,9.0,13.0,71,0.00,,,-99.99,,2013-03-23 23:22:00,
2013-03-23 15:30:00,33.0,24.0,-100.00,West,277,9.0,12.0,68,0.00,,,-99.99,,2013-03-23 23:30:00,
2013-03-23 15:52:00,33.0,24.0,-100.00,West,277,9.0,12.0,68,0.00,,,-99.99,,2013-03-23 23:52:00,
2013-03-23 16:02:00,33.0,24.0,-100.00,West,277,9.0,12.0,68,0.00,,,-99.99,,2013-03-24 00:02:00,
2013-03-23 16:12:00,33.0,24.0,-100.00,West,277,9.0,12.0,68,0.00,,,-99.99,,2013-03-24 00:12:00,
2013-03-23 16:22:00,33.0,24.0,-100.00,West,277,9.0,12.0,68,0.00,,,-99.99,,2013-03-24 00:22:00,
2013-03-23 16:30:00,34.0,23.0,-100.00,West,273,7.0,12.0,65,0.00,,,-99.99,,2013-03-24 00:30:00,
2013-03-23 16:52:00,34.0,23.0,-100.00,West,273,7.0,12.0,65,0.00,,,-99.99,,2013-03-24 00:52:00,
2013-03-23 17:02:00,34.0,23.0,-100.00,West,273,7.0,12.0,65,0.00,,,-99.99,,2013-03-24 01:02:00,
2013-03-23 17:12:00,34.0,23.0,-100.00,West,273,7.0,12.0,65,0.00,,,-99.99,,2013-03-24 01:12:00,
2013-03-23 17:22:00,34.0,23.0,-100.00,West,273,7.0,12.0,65,0.00,,,-99.99,,2013-03-24 01:22:00,
2013-03-23 17:30:00,33.0,23.0,-100.00,West,261,7.0,10.0,65,0.00,,,-99.99,,2013-03-24 01:30:00,
2013-03-23 17:53:00,33.0,23.0,-100.00,West,261,7.0,10.0,65,0.00,,,-99.99,,2013-03-24 01:53:00,
2013-03-23 18:02:00,33.0,23.0,-100.00,West,261,7.0,10.0,65,0.00,,,-99.99,,2013-03-24 02:02:00,
2013-03-23 18:12:00,33.0,23.0,-100.00,West,261,7.0,10.0,65,0.00,,,-99.99,,2013-03-24 02:12:00,
2013-03-23 18:21:00,33.0,23.0,-100.00,West,261,7.0,10.0,65,0.00,,,-99.99,,2013-03-24 02:21:00,
2013-03-23 18:30:00,34.0,23.0,-100.00,West,263,6.0,9.0,65,0.00,,,-99.99,,2013-03-24 02:30:00,
2013-03-23 18:52:00,34.0,23.0,-100.00,West,263,6.0,9.0,65,0.00,,,-99.99,,2013-03-24 02:52:00,
2013-03-23 19:02:00,34.0,23.0,-100.00,West,263,6.0,9.0,65,0.00,,,-99.99,,2013-03-24 03:02:00,
2013-03-23 19:12:00,34.0,23.0,-100.00,West,263,6.0,9.0,65,0.00,,,-99.99,,2013-03-24 03:12:00,
2013-03-23 19:22:00,34.0,23.0,-100.00,West,263,6.0,9.0,65,0.00,,,-99.99,,2013-03-24 03:22:00,
2013-03-23 19:30:00,33.0,24.0,-100.00,West,261,5.0,7.0,69,0.00,,,-99.99,,2013-03-24 03:30:00,
2013-03-23 19:53:00,33.0,24.0,-100.00,West,261,5.0,7.0,69,0.00,,,-99.99,,2013-03-24 03:53:00,
2013-03-23 20:02:00,33.0,24.0,-100.00,West,261,5.0,7.0,69,0.00,,,-99.99,,2013-03-24 04:02:00,
2013-03-23 20:12:00,33.0,24.0,-100.00,West,261,5.0,7.0,69,0.00,,,-99.99,,2013-03-24 04:12:00,
2013-03-23 20:22:00,33.0,24.0,-100.00,West,261,5.0,7.0,69,0.00,,,-99.99,,2013-03-24 04:22:00,
2013-03-23 20:30:00,33.0,23.0,-100.00,WSW,250,6.0,7.0,67,0.00,,,-99.99,,2013-03-24 04:30:00,
2013-03-23 20:53:00,33.0,23.0,-100.00,WSW,250,6.0,7.0,67,0.00,,,-99.99,,2013-03-24 04:53:00,
2013-03-23 21:02:00,33.0,23.0,-100.00,WSW,250,6.0,7.0,67,0.00,,,-99.99,,2013-03-24 05:02:00,
2013-03-23 21:12:00,33.0,23.0,-100.00,WSW,250,6.0,7.0,67,0.00,,,-99.99,,2013-03-24 05:12:00,
2013-03-23 21:22:00,33.0,23.0,-100.00,WSW,250,6.0,7.0,67,0.00,,,-99.99,,2013-03-24 05:22:00,
2013-03-23 21:30:00,33.0,23.0,-100.00,WSW,248,3.0,5.0,65,0.00,,,-99.99,,2013-03-24 05:30:00,
2013-03-23 21:52:00,33.0,23.0,-100.00,WSW,248,3.0,5.0,65,0.00,,,-99.99,,2013-03-24 05:52:00,
2013-03-23 22:02:00,33.0,23.0,-100.00,WSW,248,3.0,5.0,65,0.00,,,-99.99,,2013-03-24 06:02:00,
2013-03-23 22:12:00,33.0,23.0,-100.00,WSW,248,3.0,5.0,65,0.00,,,-99.99,,2013-03-24 06:12:00,
2013-03-23 22:22:00,33.0,23.0,-100.00,WSW,248,3.0,5.0,65,0.00,,,-99.99,,2013-03-24 06:22:00,
2013-03-23 22:30:00,33.0,23.0,-100.00,SSW,208,1.0,2.0,64,0.00,,,-99.99,,2013-03-24 06:30:00,
2013-03-23 22:52:00,33.0,23.0,-100.00,SSW,208,1.0,2.0,64,0.00,,,-99.99,,2013-03-24 06:52:00,
2013-03-23 23:02:00,33.0,23.0,-100.00,SSW,208,1.0,2.0,64,0.00,,,-99.99,,2013-03-24 07:02:00,
2013-03-23 23:12:00,33.0,23.0,-100.00,SSW,208,1.0,2.0,64,0.00,,,-99.99,,2013-03-24 07:12:00,
2013-03-23 23:22:00,33.0,23.0,-100.00,SSW,208,1.0,2.0,64,0.00,,,-99.99,,2013-03-24 07:22:00,
2013-03-23 23:30:00,32.0,25.0,-100.00,East,95,3.0,5.0,73,0.00,,,-99.99,,2013-03-24 07:30:00,
2013-03-23 23:52:00,32.0,25.0,-100.00,East,95,3.0,5.0,73,0.00,,,-99.99,,2013-03-24 07:52:00,